Regional Weather Roundup
Issued by NWS

Home | Current Version | Previous Version | Graphics & Text | Print | Product List | Glossary On
Versions: 1 2 3 4 5 6 7 8 9 10 11 12 13 14 15 16 17 18 19 20 21 22 23 24 25 26 27 28 29 30 31 32 33 34 35 36 37 38 39 40 41 42 43 44 45 46 47 48 49 50
000
ASUS43 KTOP 231059
RWRKS

WEATHER ROUNDUP FOR KANSAS
NATIONAL WEATHER SERVICE GOODLAND KS
500 AM CST THU NOV 23 2017

NOTE:  "FAIR" INDICATES FEW OR NO CLOUDS BELOW 12,000 FEET WITH NO
SIGNIFICANT WEATHER AND/OR OBSTRUCTIONS TO VISIBILITY.

KSZ001>006-013>018-027>032-041>047-231200-
NORTHWEST KANSAS

CITY           SKY/WX    TMP DP  RH WIND       PRES   REMARKS
GOODLAND       CLOUDY    41  36  82 W9        30.16R
HAYS           CLEAR     42  35  76 W10       30.07F
HILL CITY      CLEAR     41  36  82 W7        30.08F
RUSSELL        CLEAR     34  30  85 W7        30.04F
$$

KSZ061>065-074>080-084>089-231200-
SOUTHWEST KANSAS

CITY           SKY/WX    TMP DP  RH WIND       PRES   REMARKS
DODGE CITY     CLOUDY    45  32  60 NW8       30.11R
GARDEN CITY    CLOUDY    40  32  73 NW9       30.12S
GREAT BEND     CLOUDY    35  27  72 W3        30.07S
LIBERAL        CLOUDY    45  32  60 NW9       30.14R
$$

KSZ066>073-081>083-090>101-231200-
SOUTHEAST KANSAS

CITY           SKY/WX    TMP DP  RH WIND       PRES   REMARKS
CHANUTE        CLEAR     35  22  58 S9        30.11F
COFFEYVILLE    CLEAR     32  25  75 S5        30.14F
HUTCHINSON     CLOUDY    38  25  59 SW5       30.06F
MEDICINE LODGE   N/A     30  23  75 N3        30.07F
NEWTON         CLOUDY    36  21  54 SW10      30.07  WCI  28
PARSONS        CLEAR     33  25  72 S5        30.13F
WICHITA INTL   CLEAR     32  23  69 S3        30.08S
WICHITA JABRA  CLOUDY    38  22  52 SW8       30.07S
WICHITA MCCONL MOCLDY    36  21  54 SW8       30.07F
WINFIELD       CLEAR     34  23  64 S3        30.11S
$$

KSZ007>012-019>026-033>040-048>060-102>105-231200-
NORTHEAST KANSAS

CITY           SKY/WX    TMP DP  RH WIND       PRES   REMARKS
CONCORDIA      CLEAR     37  26  64 W10       30.03S WCI  30
EMPORIA        CLEAR     30  22  72 S10       30.06F WCI  21
LAWRENCE       CLEAR     30  22  72 SE5       30.06F
MANHATTAN      CLEAR     35  23  61 SW3       30.05S
OLATHE IND     CLEAR     32  23  69 S8        30.06F
OLATHE EXE     MIX PCPN  33  22  63 S9        30.06F
SALINA         CLEAR     34  24  67 S3        30.06S
TOPEKA BILLARD CLEAR     35  23  61 S3        30.06S
TOPEKA FORBES  CLEAR     34  23  64 S5        30.05S
$$




USA.gov is the U.S. government's official web portal to all federal, state and local government web resources and services.